Погода в Порецком

Россия / Чувашская Республика     55°11′39″N   46°19′31″E
темп.,
°C
ветер,
м/с
пор.,
м/с
влажн.,
%
обл.,
%
осадки,
мм/ч
давл.,
гПа
погр.,
м
14 апреля, ср
ср1400:00+9ююв326321 0.0 102917
03:00+7ююв226646 0.0 102915
06:00+7ююв32715 0.0 102827
09:00+13ююв47575 0.0 1028276
12:00+18ююв56393 0.0 1026758
15:00+19ююв67465 0.0 10241206
18:00+16ююв49675 0.0 1023239
21:00+12юв310845 0.0 1023185
15 апреля, чт
чт1500:00+11ююв23890 0.0 102234
03:00+9ююв22904 0.0 102112
06:00+9ююв229117 0.0 102123
09:00+13ю237247 0.0 1020317
12:00+17ю225089 0.0 10191160
15:00+18ю1142100 0.0 10181599
18:00+16в11515 0.0 101811
21:00+12св226737 0.0 101911
16 апреля, пт
пт1600:00+10ссв368092 0.0 101997
03:00+8ссв599498 0.0 1021333
06:00+8св5990100 0.0 1022513
09:00+8св688599 0.0 1023556
12:00+9св6881100 0.0 1024668
15:00+10всв687287 0.0 1024800
18:00+9св51074100 0.0 1025607
21:00+8св51169100 0.0 1025418
17 апреля, сб
сб1700:00+5св4107110 0.0 1026289
03:00+4св4117411 0.0 1027275
06:00+3св4117112 0.0 1028335
09:00+8всв68465 0.0 1028726
12:00+11всв67350 0.0 10281216
15:00+12всв67350 0.0 10271425
18:00+10св47450 0.0 1027262
21:00+6св36620 0.0 1028116
18 апреля, вс
вс1800:00+4св35700 0.0 102880
03:00+3св33750 0.0 102944
06:00+3ссв26770 0.0 1029129
09:00+9св46546 0.0 1029699
12:00+12св564295 0.0 10281517
15:00+13св5742100 0.0 10281844
18:00+11св5952100 0.0 1028561
21:00+7всв61268100 0.0 1030545